User: anonymous   Login
Location: Bothwell
(42.3833°S, 147.0000°E)
Time: 17:41:55
(UTC+11:00)
Language:

SO-50 - Orbit

View from above orbital plane
View from above orbital plane
View from above satellite
View from above satellite

Ground track
Ground track

The orbit data is extracted from the following two-line orbital elements,

1 27607U 02058C   22278.47497007  .00001544  00000-0  23068-3 0  9992
2 27607  64.5551 325.1829 0081657 273.4454  85.7311 14.76284500 64615
Epoch (UTC): 05 October 2022 11:23:57
Eccentricity: 0.0081657
inclination: 64.5551°
perigee height: 584 km
apogee height: 698 km
right ascension of ascending node: 325.1829°
argument of perigee: 273.4454°
revolutions per day: 14.76284500
mean anomaly at epoch: 85.7311°
orbit number at epoch: 6461

The dashed part of the orbit path shows where the satellite is in the earth's shadow,  

DLR